Location: Fxbg
(38.3018°N, 77.4708°W)
Time: 23:39:00
(UTC-04:00)

ISS - Visible Passes

Search period start: 25 April 2019 00:00
Search period end: 05 May 2019 00:00
Orbit: 408 x 410 km, 51.6° (Epoch: 26 April)

Date Brightness Start Highest point End Pass type
(mag) Time Alt. Az. Time Alt. Az. Time Alt. Az.
26 Apr -1.6 05:41:10 10° S 05:43:45 21° SE 05:46:21 10° E visible
27 Apr -1.0 04:52:06 10° SSE 04:53:09 11° SE 04:54:12 10° ESE visible
28 Apr -3.4 05:35:15 10° SW 05:38:31 61° SE 05:41:47 10° ENE visible
29 Apr -2.4 04:46:30 22° S 04:47:47 30° SE 04:50:43 10° ENE visible
30 Apr -1.2 03:57:46 15° ESE 03:57:46 15° ESE 03:59:12 10° E visible
30 Apr -3.3 05:30:31 12° WSW 05:33:23 48° NW 05:36:37 10° NE visible
01 May -3.9 04:41:42 48° SW 04:42:31 88° SE 04:45:50 10° NE visible
02 May -2.1 03:52:48 31° E 03:52:48 31° E 03:54:52 10° ENE visible
02 May -2.0 05:25:43 10° W 05:28:24 23° NNW 05:31:07 10° NNE visible
03 May -2.7 04:36:34 30° WNW 04:37:24 35° NNW 04:40:29 10° NE visible
04 May -2.4 03:47:31 38° NNE 03:47:31 38° NNE 03:49:44 10° NE visible
04 May -1.2 05:21:46 10° NW 05:23:33 14° NNW 05:25:20 10° NNE visible
